Previsão horária em Cernusco sul Naviglio

Hoje, 25 Julho, Domingo

Tempo Temperatura Precipitação Vento Pressão Humidade
00:00 +25°C° 0 mm 2 m/s 746 mmHg 67%
01:00 +24°C° 0 mm 2 m/s 746 mmHg 70%
02:00 +23°C° 0 mm 1 m/s 746 mmHg 72%
03:00 +23°C° 0 mm 1 m/s 746 mmHg 74%
04:00 +22°C° 0 mm 1 m/s 746 mmHg 76%
05:00 +23°C° 0.1 mm 1 m/s 746 mmHg 75%
06:00 +23°C° 0.1 mm 1 m/s 746 mmHg 73%
07:00 +24°C° 0.1 mm 1 m/s 746 mmHg 71%
08:00 +25°C° 0.1 mm 1 m/s 746 mmHg 67%
09:00 +27°C° 0.1 mm 1 m/s 746 mmHg 63%
10:00 +28°C° 0.1 mm 2 m/s 746 mmHg 58%
11:00 +29°C° 0.2 mm 2 m/s 746 mmHg 54%
12:00 +30°C° 0.2 mm 1 m/s 746 mmHg 50%
13:00 +31°C° 0.2 mm 1 m/s 746 mmHg 46%
14:00 +31°C° 0.2 mm 2 m/s 745 mmHg 46%
15:00 +32°C° 0.2 mm 2 m/s 745 mmHg 46%
16:00 +32°C° 0.2 mm 2 m/s 745 mmHg 46%
17:00 +31°C° 0.1 mm 2 m/s 745 mmHg 48%
18:00 +30°C° 0.1 mm 2 m/s 745 mmHg 51%
19:00 +29°C° 0.1 mm 2 m/s 745 mmHg 53%
20:00 +27°C° 0.7 mm 2 m/s 745 mmHg 63%
21:00 +25°C° 0.7 mm 2 m/s 745 mmHg 73%
22:00 +23°C° 0.7 mm 2 m/s 745 mmHg 83%
23:00 +23°C° 1.2 mm 1 m/s 746 mmHg 85%

Amanhã, 26 Julho, Segunda-feira

Tempo Temperatura Precipitação Vento Pressão Humidade
00:00 +22°C° 1.2 mm 1 m/s 746 mmHg 88%
01:00 +22°C° 1.2 mm 1 m/s 746 mmHg 90%
02:00 +22°C° 1.7 mm 1 m/s 746 mmHg 91%
03:00 +21°C° 1.7 mm 1 m/s 746 mmHg 92%
04:00 +21°C° 1.7 mm 1 m/s 746 mmHg 93%
05:00 +21°C° 1.4 mm 1 m/s 747 mmHg 93%
06:00 +22°C° 1.4 mm 1 m/s 747 mmHg 92%
07:00 +20°C° 1.4 mm 0 m/s 747 mmHg 91%
08:00 +24°C° 0.5 mm 1 m/s 747 mmHg 85%
09:00 +25°C° 0.5 mm 1 m/s 748 mmHg 78%
10:00 +27°C° 0.5 mm 1 m/s 748 mmHg 72%
11:00 +28°C° 0.8 mm 1 m/s 748 mmHg 69%
12:00 +28°C° 0.8 mm 1 m/s 748 mmHg 67%
13:00 +29°C° 0.8 mm 1 m/s 748 mmHg 65%
14:00 +30°C° 0.2 mm 1 m/s 747 mmHg 60%
15:00 +31°C° 0.2 mm 2 m/s 747 mmHg 56%
16:00 +31°C° 0.2 mm 2 m/s 747 mmHg 51%
17:00 +30°C° 0.1 mm 2 m/s 747 mmHg 56%
18:00 +29°C° 0.1 mm 1 m/s 747 mmHg 61%
19:00 +28°C° 0.1 mm 1 m/s 747 mmHg 66%
20:00 +26°C° 2.4 mm 1 m/s 747 mmHg 76%
21:00 +24°C° 2.4 mm 2 m/s 748 mmHg 86%
22:00 +21°C° 2.4 mm 2 m/s 749 mmHg 95%
23:00 +20°C° 1.4 mm 2 m/s 749 mmHg 95%

Depois de amanhã, 27 Julho, Terça-feira

Tempo Temperatura Precipitação Vento Pressão Humidade
00:00 +20°C° 1.4 mm 2 m/s 749 mmHg 96%
01:00 +20°C° 1.4 mm 2 m/s 749 mmHg 96%
02:00 +21°C° 1 mm 1 m/s 749 mmHg 96%
03:00 +21°C° 1 mm 1 m/s 749 mmHg 96%
04:00 +20°C° 1 mm 1 m/s 750 mmHg 95%
05:00 +21°C° 1 mm 1 m/s 750 mmHg 95%
06:00 +21°C° 1 mm 1 m/s 750 mmHg 94%
07:00 +21°C° 1 mm 1 m/s 750 mmHg 93%
08:00 +22°C° 0.9 mm 1 m/s 750 mmHg 90%
09:00 +23°C° 0.9 mm 1 m/s 750 mmHg 86%
10:00 +24°C° 0.9 mm 1 m/s 750 mmHg 83%
11:00 +25°C° 0.5 mm 1 m/s 750 mmHg 78%
12:00 +27°C° 0.5 mm 1 m/s 750 mmHg 74%
13:00 +28°C° 0.5 mm 1 m/s 750 mmHg 70%
14:00 +28°C° 0.4 mm 1 m/s 750 mmHg 67%
15:00 +29°C° 0.4 mm 2 m/s 749 mmHg 65%
16:00 +29°C° 0.4 mm 2 m/s 749 mmHg 63%
17:00 +28°C° 0 mm 2 m/s 748 mmHg 67%
18:00 +28°C° 0 mm 2 m/s 748 mmHg 70%
19:00 +27°C° 0 mm 1 m/s 748 mmHg 73%
20:00 +25°C° 0.5 mm 2 m/s 748 mmHg 79%
21:00 +24°C° 0.5 mm 2 m/s 748 mmHg 85%
22:00 +21°C° 0.5 mm 2 m/s 748 mmHg 90%
23:00 +21°C° 0.5 mm 2 m/s 748 mmHg 91%

28 Julho, Quarta-feira

Tempo Temperatura Precipitação Vento Pressão Humidade
00:00 +22°C° 0.5 mm 1 m/s 748 mmHg 92%
01:00 +21°C° 0.5 mm 1 m/s 748 mmHg 93%
02:00 +21°C° 0.5 mm 1 m/s 748 mmHg 93%
03:00 +21°C° 0.5 mm 1 m/s 748 mmHg 94%
04:00 +21°C° 0.5 mm 1 m/s 748 mmHg 95%
05:00 +21°C° 0.7 mm 1 m/s 748 mmHg 94%
06:00 +20°C° 0.7 mm 0 m/s 748 mmHg 93%
07:00 +20°C° 0.7 mm 0 m/s 749 mmHg 93%
08:00 +21°C° 0.4 mm 0 m/s 749 mmHg 89%
09:00 +24°C° 0.4 mm 1 m/s 749 mmHg 85%
10:00 +25°C° 0.4 mm 1 m/s 749 mmHg 81%
11:00 +27°C° 0.2 mm 1 m/s 749 mmHg 74%
12:00 +28°C° 0.2 mm 1 m/s 749 mmHg 67%
13:00 +29°C° 0.2 mm 1 m/s 749 mmHg 60%
14:00 +30°C° 0 mm 1 m/s 748 mmHg 58%
15:00 +30°C° 0 mm 1 m/s 748 mmHg 56%
16:00 +31°C° 0 mm 1 m/s 748 mmHg 54%
17:00 +30°C° 0 mm 1 m/s 748 mmHg 59%
18:00 +29°C° 0 mm 1 m/s 748 mmHg 64%
19:00 +28°C° 0 mm 1 m/s 747 mmHg 69%
20:00 +26°C° 0.2 mm 1 m/s 748 mmHg 74%
21:00 +25°C° 0.2 mm 1 m/s 748 mmHg 78%
22:00 +24°C° 0.2 mm 1 m/s 748 mmHg 82%
23:00 +23°C° 0 mm 1 m/s 748 mmHg 82%

29 Julho, Quinta-feira

Tempo Temperatura Precipitação Vento Pressão Humidade
00:00 +23°C° 0 mm 1 m/s 748 mmHg 82%
01:00 +22°C° 0 mm 1 m/s 748 mmHg 82%
02:00 +22°C° 0 mm 1 m/s 748 mmHg 81%
03:00 +22°C° 0 mm 1 m/s 748 mmHg 81%
04:00 +22°C° 0 mm 1 m/s 748 mmHg 81%
05:00 +22°C° 0 mm 1 m/s 749 mmHg 79%
06:00 +23°C° 0 mm 1 m/s 749 mmHg 78%
07:00 +22°C° 0 mm 0 m/s 749 mmHg 77%
08:00 +23°C° 0 mm 0 m/s 749 mmHg 71%
09:00 +27°C° 0 mm 1 m/s 749 mmHg 65%
10:00 +29°C° 0 mm 1 m/s 749 mmHg 59%
11:00 +30°C° 0 mm 1 m/s 749 mmHg 56%
12:00 +31°C° 0 mm 1 m/s 749 mmHg 53%
13:00 +32°C° 0 mm 1 m/s 748 mmHg 50%
14:00 +33°C° 0 mm 1 m/s 748 mmHg 48%
15:00 +33°C° 0 mm 1 m/s 748 mmHg 47%
16:00 +33°C° 0 mm 1 m/s 747 mmHg 46%
17:00 +32°C° 0 mm 1 m/s 747 mmHg 52%
18:00 +31°C° 0 mm 1 m/s 747 mmHg 57%
19:00 +30°C° 0 mm 1 m/s 747 mmHg 63%
20:00 +29°C° 0 mm 1 m/s 747 mmHg 64%
21:00 +28°C° 0 mm 1 m/s 747 mmHg 66%
22:00 +26°C° 0 mm 1 m/s 747 mmHg 68%
23:00 +26°C° 0.2 mm 1 m/s 747 mmHg 70%

30 Julho, Sexta-feira

Tempo Temperatura Precipitação Vento Pressão Humidade
00:00 +25°C° 0.2 mm 1 m/s 747 mmHg 72%
01:00 +24°C° 0.2 mm 1 m/s 747 mmHg 75%
02:00 +23°C° 0.1 mm 1 m/s 747 mmHg 78%
03:00 +23°C° 0.1 mm 1 m/s 747 mmHg 80%
04:00 +22°C° 0.1 mm 1 m/s 747 mmHg 83%
05:00 +23°C° 0.2 mm 1 m/s 747 mmHg 82%
06:00 +24°C° 0.2 mm 1 m/s 747 mmHg 81%
07:00 +24°C° 0.2 mm 1 m/s 748 mmHg 80%
08:00 +26°C° 0.1 mm 1 m/s 748 mmHg 73%
09:00 +28°C° 0.1 mm 1 m/s 747 mmHg 65%
10:00 +30°C° 0.1 mm 1 m/s 747 mmHg 58%
11:00 +31°C° 0 mm 1 m/s 747 mmHg 54%
12:00 +32°C° 0 mm 1 m/s 747 mmHg 51%
13:00 +33°C° 0 mm 1 m/s 747 mmHg 47%
14:00 +33°C° 0 mm 1 m/s 746 mmHg 46%
15:00 +34°C° 0 mm 1 m/s 746 mmHg 45%
16:00 +34°C° 0 mm 1 m/s 745 mmHg 45%
17:00 +33°C° 0 mm 1 m/s 745 mmHg 50%
18:00 +32°C° 0 mm 1 m/s 745 mmHg 56%
19:00 +31°C° 0 mm 1 m/s 745 mmHg 61%
20:00 +29°C° 0.5 mm 1 m/s 745 mmHg 67%
21:00 +27°C° 0.5 mm 2 m/s 745 mmHg 72%
22:00 +25°C° 0.5 mm 2 m/s 746 mmHg 78%
23:00 +25°C° 0.5 mm 2 m/s 746 mmHg 81%
Mostrar mais

Necessitamos do seu Consentimento

A Meteoprog e os seus Fornecedores de Serviços podem armazenar e aceder a dados pessoais como cookies, identificadores do dispositivo ou outras tecnologias semelhantes existentes no seu dispositivo e processar estes dados para personalizar conteúdos e anúncios, assim como funcionalidades nas redes sociais e análise de tráfego.

  • Armazenar e/ou aceder a informações no seu dispositivo

    Os cookies, identificadores do dispositivo ou outras informações podem ser armazenados ou acedidos no seu dispositivo, para os fins acima indicados.

  • Anúncios e conteúdos personalizados, medição de anúncios e conteúdos, dados sobre o público-alvo e desenvolvimento de produtos

    Os anúncios e os conteúdos podem ser personalizados com base num perfil. Podem ser adicionados dados adicionais para uma maior personalização dos anúncios e dos conteúdos. A eficácia dos anúncios e dos conteúdos pode ser medida. Podem ser obtidas informações sobre o público que visualizou os anúncios e os conteúdos. Estes dados podem ser usados para desenvolver ou melhorar sistemas, softwares ou a experiência do utilizador.

Ao clicar em "Eu concordo”, permitirá o uso de cookies, identificadores do dispositivo e web beacons mencionados ou outras tecnologias semelhantes. As configurações do navegador do seu dispositivo podem ser alteradas.

Para certos fins, podem ser invocados interesses legítimos ao invés de consentimento. Pode ler mais informação sobre este assunto na nossa Política de Privacidade e Cookies.